Miami, FL

5:38 PM EST on February 07, 2016 (GMT -0500)
Kendall-Tamiami Executive

Weather History for KTMB - February, 2012

Change the Weather History Date:

Monday, February 13, 2012

  Actual Average Record
Temperature  
Mean Temperature 58 °F -  
Max Temperature 70 °F 79 °F 84 °F (2013)
Min Temperature 46 °F 53 °F 37 °F (2006)
Degree Days  
Heating Degree Days 7    
Growing Degree Days 8 (Base 50)    
Moisture  
Dew Point 46 °F    
Average Humidity 67    
Maximum Humidity 86    
Minimum Humidity 44    
Precipitation  
Precipitation 0.00 in - - ()
Sea Level Pressure  
Sea Level Pressure 30.18 in    
Wind  
Wind Speed 9 mph (NE)    
Max Wind Speed 15 mph    
Max Gust Speed 24 mph    
Visibility 10 miles    
Events      
Averages and records for this station are not official NWS values.
T = Trace of Precipitation, MM = Missing Value Source: NWS Daily Summary

Daily Weather History Graph

Daily Weather History Graph

Search for Another Location

Airport or City:

Trip Planner

Search our weather history database for the weather conditions in past years. The results will help you decide how hot, cold, wet, or windy it might be!

Date:

Astronomy

Feb. 13, 2012 Rise Set
Actual Time 6:58 AM EST 6:13 PM EST
Civil Twilight 6:34 AM EST 6:37 PM EST
Nautical Twilight 6:07 AM EST 7:04 PM EST
Astronomical Twilight 5:41 AM EST 7:31 PM EST
Moon No Moon Rise 10:42 AM EST (2/13)
Length of Visible Light 12h 02m
Length of Day
11h 15m
Waning Gibbous, 62% of the Moon is Illuminated
Feb 13
Waning Gibbous
Feb 14
Last Quarter
Feb 21
New
Feb 29
First Quarter
Mar 8
Full

Hourly Weather History & Observations

Time (EST) Temp. Windchill Dew Point Humidity Pressure Visibility Wind Dir Wind Speed Gust Speed Precip Events Conditions
12:53 AM 48.0 °F - 41.0 °F 77% 30.22 in 10.0 mi North 10.4 mph - N/A   Clear
1:53 AM 48.0 °F - 41.0 °F 77% 30.21 in 10.0 mi North 10.4 mph - N/A   Clear
2:53 AM 46.9 °F - 41.0 °F 80% 30.19 in 10.0 mi North 10.4 mph - N/A   Clear
3:53 AM 46.9 °F - 41.0 °F 80% 30.19 in 10.0 mi North 8.1 mph - N/A   Clear
4:53 AM 46.9 °F - 41.0 °F 80% 30.19 in 10.0 mi North 10.4 mph - N/A   Clear
5:53 AM 46.9 °F - 42.1 °F 83% 30.18 in 10.0 mi North 6.9 mph - N/A   Clear
6:53 AM 46.0 °F 42.5 °F 42.1 °F 86% 30.20 in 10.0 mi North 6.9 mph - N/A   Clear
7:53 AM 50.0 °F - 45.0 °F 83% 30.20 in 10.0 mi North 5.8 mph - N/A   Clear
8:53 AM 55.0 °F - 46.9 °F 74% 30.22 in 10.0 mi North 5.8 mph - N/A   Clear
9:53 AM 61.0 °F - 50.0 °F 67% 30.24 in 10.0 mi North 6.9 mph - N/A   Clear
10:53 AM 66.9 °F - 48.9 °F 52% 30.22 in 10.0 mi East 11.5 mph 18.4 mph N/A   Clear
11:53 AM 68.0 °F - 46.9 °F 47% 30.19 in 10.0 mi East 15.0 mph 24.2 mph N/A   Partly Cloudy
12:53 PM 66.9 °F - 46.9 °F 49% 30.18 in 10.0 mi East 12.7 mph 20.7 mph N/A   Partly Cloudy
1:53 PM 69.1 °F - 46.0 °F 44% 30.14 in 10.0 mi East 12.7 mph - N/A   Scattered Clouds
2:53 PM 70.0 °F - 48.0 °F 46% 30.14 in 10.0 mi East 12.7 mph - N/A   Scattered Clouds
3:53 PM 70.0 °F - 48.0 °F 46% 30.14 in 10.0 mi ESE 11.5 mph - N/A   Scattered Clouds
4:53 PM 66.0 °F - 48.0 °F 52% 30.13 in 10.0 mi ESE 10.4 mph - N/A   Mostly Cloudy
5:53 PM 64.9 °F - 48.9 °F 56% 30.14 in 10.0 mi East 10.4 mph - N/A   Clear
6:53 PM 62.1 °F - 50.0 °F 65% 30.14 in 10.0 mi East 6.9 mph - N/A   Clear
7:53 PM 61.0 °F - 50.0 °F 67% 30.15 in 10.0 mi East 5.8 mph - N/A   Clear
8:53 PM 62.1 °F - 50.0 °F 65% 30.15 in 10.0 mi East 3.5 mph - N/A   Clear
9:53 PM 59.0 °F - 50.0 °F 72% 30.16 in 10.0 mi East 3.5 mph - N/A   Clear
10:53 PM 59.0 °F - 50.0 °F 72% 30.15 in 10.0 mi Calm Calm - N/A   Clear
11:53 PM 57.9 °F - 51.1 °F 78% 30.14 in 10.0 mi Calm Calm - N/A   Clear